Weather History for Idaho Falls, ID

Change the Weather History Date:

Friday, January 18, 2013

  Actual Average Record
Temperature  
Mean Temperature 1 °F 20 °F  
Max Temperature 12 °F 29 °F 44 °F (2015)
Min Temperature -10 °F 12 °F -27 °F (1984)
Degree Days  
Heating Degree Days 64 45  
Month to date heating degree days 1060 810  
Since 1 July heating degree days 3796 4083  
Cooling Degree Days 0 0  
Month to date cooling degree days 0 0  
Year to date cooling degree days 0 0  
Moisture  
Dew Point -8 °F    
Average Humidity 77    
Maximum Humidity 87    
Minimum Humidity 66    
Precipitation  
Precipitation 0.00 in 0.02 in 0.34 in (2000)
Month to date precipitation 0.14 0.44  
Year to date precipitation 0.14 0.44  
Sea Level Pressure  
Sea Level Pressure 30.69 in    
Wind  
Wind Speed 5 mph (NNE)    
Max Wind Speed 12 mph    
Max Gust Speed 13 mph    
Visibility 9 miles    
Events      
T = Trace of Precipitation, MM = Missing Value Source: NWS Daily Summary

Daily Weather History Graph

Daily Weather History Graph

Search for Another Location

Airport:

Trip Planner

Search our weather history database for the weather conditions in past years. The results will help you decide how hot, cold, wet, or windy it might be!

Date:

Astronomy

Jan. 18, 2013 Rise Set
Actual Time 7:56 AM MST 5:21 PM MST
Civil Twilight 7:24 AM MST 5:53 PM MST
Nautical Twilight 6:49 AM MST 6:28 PM MST
Astronomical Twilight 6:15 AM MST 7:02 PM MST
Moon 11:21 AM MST (1/18) 12:30 AM MST (1/18)
Length of Visible Light 10h 28m
Length of Day
9h 25m
Waxing Crescent, 48% of the Moon is Illuminated
Jan 18
Waxing Crescent
Jan 18
First Quarter
Jan 26
Full
Feb 3
Last Quarter
Feb 10
New

Hourly Weather History & Observations

Time (MST) Temp. Windchill Dew Point Humidity Pressure Visibility Wind Dir Wind Speed Gust Speed Precip Events Conditions
12:11 AM -2.2 °F - -5.8 °F 85% 30.48 in 9.0 mi Calm Calm - N/A   Mostly Cloudy
12:53 AM -6.0 °F -16.9 °F -9.9 °F 83% 30.79 in 10.0 mi North 4.6 mph - N/A   Mostly Cloudy
1:36 AM -4.0 °F -14.6 °F -7.6 °F 85% 30.48 in 1.8 mi NE 4.6 mph - N/A   Overcast
1:53 AM -4.0 °F -14.6 °F -8.0 °F 83% 30.77 in 1.5 mi ENE 4.6 mph - N/A   Overcast
1:57 AM -4.0 °F -16.3 °F -7.6 °F 85% 30.48 in 3.0 mi NE 5.8 mph - N/A   Overcast
2:53 AM -7.1 °F -19.9 °F -11.0 °F 83% 30.78 in 4.0 mi North 5.8 mph - N/A   Overcast
3:50 AM -7.6 °F -22.1 °F -11.2 °F 84% 30.47 in 10.0 mi North 6.9 mph - N/A   Scattered Clouds
3:53 AM -8.0 °F -22.5 °F -11.9 °F 83% 30.78 in 10.0 mi North 6.9 mph - N/A   Scattered Clouds
4:53 AM -8.0 °F - -14.1 °F 75% 30.73 in 10.0 mi Calm Calm - N/A   Clear
5:37 AM -7.6 °F -20.6 °F -14.8 °F 71% 30.44 in 5.0 mi ENE 5.8 mph - N/A   Haze
5:53 AM -9.0 °F -26.4 °F -15.0 °F 75% 30.78 in 10.0 mi NNE 9.2 mph - N/A   Scattered Clouds
6:02 AM -9.4 °F -26.8 °F -14.8 °F 77% 30.45 in 10.0 mi NNE 9.2 mph - N/A   Mostly Cloudy
6:43 AM -9.4 °F - -13.0 °F 84% 30.44 in 10.0 mi Calm Calm - N/A   Scattered Clouds
6:53 AM -9.9 °F -19.2 °F -15.0 °F 78% 30.79 in 10.0 mi North 3.5 mph - N/A   Clear
7:53 AM -9.0 °F - -14.1 °F 79% 30.79 in 10.0 mi Calm Calm - N/A   Clear
8:53 AM -9.0 °F -23.8 °F -13.0 °F 83% 30.82 in 10.0 mi NNE 6.9 mph - N/A   Clear
9:53 AM -2.0 °F -15.4 °F -8.0 °F 76% 30.82 in 10.0 mi North 6.9 mph - N/A   Clear
10:53 AM -0.0 °F -7.9 °F -5.1 °F 79% 30.79 in 10.0 mi NNE 3.5 mph - N/A   Clear
11:53 AM 3.0 °F -9.3 °F -2.0 °F 80% 30.76 in 10.0 mi North 6.9 mph - N/A   Clear
12:53 PM 6.1 °F -2.8 °F -0.0 °F 76% 30.75 in 10.0 mi North 4.6 mph - N/A   Clear
1:53 PM 10.0 °F 3.6 °F 1.9 °F 70% 30.70 in 10.0 mi NNE 3.5 mph - N/A   Clear
2:53 PM 10.9 °F 4.7 °F 3.9 °F 73% 30.70 in 10.0 mi North 3.5 mph - N/A   Clear
3:53 PM 7.0 °F -1.7 °F 1.0 °F 77% 30.72 in 10.0 mi NNW 4.6 mph - N/A   Clear
4:53 PM 6.1 °F - -0.9 °F 73% 30.72 in 10.0 mi Calm Calm - N/A   Clear
5:53 PM 3.0 °F -8.0 °F -2.0 °F 80% 30.74 in 10.0 mi North 5.8 mph - N/A   Clear
6:53 PM -2.0 °F -10.1 °F -6.0 °F 83% 30.76 in 10.0 mi North 3.5 mph - N/A   Clear
7:53 PM 1.0 °F -8.7 °F -4.0 °F 79% 30.74 in 10.0 mi North 4.6 mph - N/A   Clear
8:53 PM -0.9 °F - -5.1 °F 83% 30.76 in 10.0 mi Calm Calm - N/A   Clear
9:53 PM -6.0 °F -22.6 °F -9.9 °F 83% 30.77 in 10.0 mi NNE 9.2 mph - N/A   Clear
10:53 PM -2.0 °F -13.9 °F -7.1 °F 79% 30.75 in 10.0 mi ENE 5.8 mph - N/A   Clear
11:53 PM -2.9 °F -13.3 °F -7.1 °F 82% 30.75 in 10.0 mi North 4.6 mph - N/A   Clear